Погода в Валах

Россия / Самарская область     53°19′28″N   49°24′19″E
темп.,
°C
ветер,
м/с
пор.,
м/с
влажн.,
%
обл.,
%
осадки,
мм/ч
давл.,
гПа
погр.,
м
17 мая, пн
пн1701:00+18в225511 0.0 101714
04:00+18вюв225568 0.0 101742
07:00+21ююв275795 0.0 1018172
10:00+26ю354218 0.0 1018400
13:00+30ююв45305 0.0 10181704
16:00+30ю442514 0.0 10173352
19:00+26ююз22446 0.0 101618
22:00+21в114314 0.0 101711
18 мая, вт
вт1801:00+19св11435 0.0 101611
04:00+18всв11430 0.0 101711
07:00+21всв22490 0.0 101746
10:00+26юв343526 0.0 1017459
13:00+30юв34230 0.0 10161586
16:00+30ююв12201 0.0 10152754
19:00+25св35414 0.0 101580
22:00+22всв33304 0.0 101532
19 мая, ср
ср1901:00+19всв5135726 0.0 1015222
04:00+19в714685 0.0 1015350
07:00+19в613675 0.0 1015392
10:00+24в79500 0.0 1015614
13:00+27вюв78410 0.0 10141275
16:00+28вюв67380 0.0 10142062
19:00+24в611460 0.0 1014298
22:00+22вюв815510 0.0 1015590
20 мая, чт
чт2001:00+20вюв715590 0.0 1016596
04:00+18вюв614570 0.0 1016503
07:00+18вюв713620 0.0 1017540
10:00+22юв811510 0.0 10171196
13:00+24юв810431 0.0 10161912
16:00+25юв710417 0.0 10152590
19:00+20юз596599 0.3 1016350
22:00+14с119388 0.3 101713
21 мая, пт
пт2101:00+16вюв228114 0.0 101758
04:00+15юв228312 0.0 101860
07:00+16ю34846 0.1 1018246
10:00+21ююз44620 0.1 10191072
13:00+23юз56461 0.0 10191957
16:00+23зюз454720 0.0 10201907
19:00+21юз24605 0.0 1020152
22:00+16зюз227236 0.0 102112